User: anonymous   Login
Location: Niedergestelen
(46.3129°N, 7.7822°E)
Time: 07:17:52
(UTC+00:00)
Language:

FENGYUN 1C DEB - Orbit

View from above orbital plane
View from above orbital plane
View from above satellite
View from above satellite

Ground track
Ground track

The orbit data is extracted from the following two-line orbital elements,

1 32106U 99025CQY 21170.88306963  .00001088  00000-0  69307-3 0  9996
2 32106 101.4812  34.2492 0153709 297.2548  61.3022 14.01147022707692
Epoch (UTC): 19 June 2021 21:11:37
Eccentricity: 0.0153709
inclination: 101.4812°
perigee height: 778 km
apogee height: 1001 km
right ascension of ascending node: 34.2492°
argument of perigee: 297.2548°
revolutions per day: 14.01147022
mean anomaly at epoch: 61.3022°
orbit number at epoch: 70769

The dashed part of the orbit path shows where the satellite is in the earth's shadow,  

DLR